contact:dominique.lefevre@mio.osupytheas.fr, maurice.libes@osupytheas.fr, didier.mallarino@osupytheas.fr
Project:EMSO http://www.emso-fr.org/EMSO-France
Depth: 2436.0 m
Title:EMSO Ligure Ouest : Data MII capteur AQUADOPP
Date,Latitude,Longitude,X_East,Y_North,Z_Up,Amplitude_X,Amplitude_Y,Amplitude_Z,Batterie,SoundSpeed,Heading,Pitch,Roll,Pressure,TIS,Speed,Direction
, degrees North, degrees East, m.s-1, m.s-1,m.s-1, 1, 1, 1, Volt, m.s-1, degree, degree, degree, dbar, degree_C, m.s-1, degree
2020-09-18T00:04:03,42.805,6.029,0.033,-0.031,-0.017,105.0,106.0,102.0,13.3,1505.2,326.9,-0.7,1.8,2470.325,13.3,0.045,133.2
2020-09-18T00:07:03,42.805,6.029,0.058,-0.027,-0.024,105.0,106.0,102.0,13.3,1505.3,324.3,-0.7,1.8,2470.393,13.31,0.063,115.0
2020-09-18T00:10:03,42.805,6.029,0.043,-0.015,0.001,106.0,106.0,102.0,13.4,1505.3,326.6,-0.7,1.8,2470.353,13.31,0.045,109.2
2020-09-18T00:13:03,42.805,6.029,0.043,-0.002,-0.018,106.0,106.0,102.0,13.4,1505.3,324.2,-0.7,1.8,2470.322,13.32,0.043,92.7
2020-09-18T00:16:03,42.805,6.029,0.076,-0.012,0.044,105.0,106.0,103.0,13.3,1505.3,324.7,-0.7,1.8,2470.354,13.32,0.076,99.0
2020-09-18T00:19:03,42.805,6.029,0.067,-0.034,0.015,106.0,107.0,102.0,13.4,1505.3,325.1,-0.7,1.8,2470.364,13.32,0.075,116.9
2020-09-18T00:22:03,42.805,6.029,0.046,-0.021,0.005,105.0,107.0,102.0,13.4,1505.3,326.9,-0.7,1.8,2470.306,13.32,0.05,114.5
2020-09-18T00:25:03,42.805,6.029,0.047,-0.028,0.0,105.0,107.0,103.0,13.4,1505.3,322.7,-0.7,1.9,2470.351,13.32,0.054,120.8
2020-09-18T00:28:03,42.805,6.029,0.041,-0.026,0.023,105.0,106.0,103.0,13.3,1505.3,326.6,-0.7,1.8,2470.289,13.32,0.048,122.4
2020-09-18T00:31:04,42.805,6.029,0.052,-0.026,-0.007,105.0,106.0,103.0,13.3,1505.3,326.3,-0.7,1.8,2470.324,13.32,0.058,116.6
2020-09-18T00:34:03,42.805,6.029,0.059,-0.017,-0.016,105.0,106.0,103.0,13.4,1505.3,324.9,-0.7,1.9,2470.302,13.32,0.061,106.1
2020-09-18T00:37:04,42.805,6.029,0.028,-0.031,0.019,105.0,107.0,103.0,13.4,1505.3,328.1,-0.7,1.8,2470.324,13.32,0.041,137.9
2020-09-18T00:40:03,42.805,6.029,0.035,-0.012,-0.002,105.0,106.0,102.0,13.4,1505.3,323.6,-0.7,1.8,2470.322,13.32,0.037,108.9
2020-09-18T00:43:03,42.805,6.029,0.075,-0.039,-0.028,105.0,105.0,103.0,13.4,1505.3,324.4,-0.7,1.8,2470.285,13.32,0.084,117.5
2020-09-18T00:46:03,42.805,6.029,0.042,-0.028,-0.002,104.0,106.0,102.0,13.4,1505.3,328.6,-0.7,1.8,2470.321,13.32,0.05,123.7
2020-09-18T00:49:03,42.805,6.029,0.055,-0.03,-0.001,104.0,105.0,103.0,13.3,1505.3,325.7,-0.7,1.8,2470.302,13.32,0.062,118.6
2020-09-18T00:52:03,42.805,6.029,0.077,-0.034,0.0,106.0,106.0,103.0,13.3,1505.3,323.2,-0.7,1.8,2470.287,13.32,0.084,113.8
2020-09-18T00:55:03,42.805,6.029,0.057,-0.046,-0.047,106.0,106.0,103.0,13.3,1505.3,325.0,-0.7,1.9,2470.299,13.32,0.073,128.9
2020-09-18T00:58:03,42.805,6.029,0.035,-0.044,-0.008,106.0,107.0,102.0,13.4,1505.3,326.5,-0.7,1.9,2470.271,13.32,0.056,141.5
2020-09-18T01:04:03,42.805,6.029,0.038,-0.032,-0.003,106.0,106.0,103.0,13.4,1505.2,325.9,-0.8,1.8,2470.326,13.3,0.049,130.1
2020-09-18T01:07:03,42.805,6.029,0.037,-0.029,-0.014,105.0,107.0,103.0,13.3,1505.3,323.5,-0.7,1.8,2470.345,13.31,0.047,128.1
2020-09-18T01:10:03,42.805,6.029,0.039,-0.028,-0.015,105.0,106.0,103.0,13.4,1505.3,327.2,-0.7,1.8,2470.313,13.31,0.048,125.7
2020-09-18T01:13:03,42.805,6.029,0.03,-0.016,0.0,106.0,106.0,102.0,13.4,1505.3,326.9,-0.7,1.8,2470.312,13.32,0.034,118.1
2020-09-18T01:16:03,42.805,6.029,0.059,-0.04,-0.022,106.0,106.0,103.0,13.3,1505.3,326.8,-0.7,1.8,2470.292,13.32,0.071,124.1
2020-09-18T01:19:03,42.805,6.029,0.025,-0.02,0.017,106.0,105.0,101.0,13.4,1505.3,326.3,-0.7,1.9,2470.286,13.32,0.032,128.7
2020-09-18T01:22:03,42.805,6.029,0.058,-0.023,0.025,106.0,107.0,101.0,13.3,1505.3,326.1,-0.7,1.8,2470.265,13.32,0.062,111.6
2020-09-18T01:25:03,42.805,6.029,0.04,-0.031,0.0,105.0,106.0,102.0,13.4,1505.3,328.2,-0.7,1.8,2470.284,13.32,0.05,127.8
2020-09-18T01:28:03,42.805,6.029,0.059,-0.025,-0.005,105.0,106.0,103.0,13.3,1505.3,327.8,-0.7,1.8,2470.281,13.32,0.064,113.0
2020-09-18T01:31:03,42.805,6.029,0.043,-0.027,0.01,105.0,107.0,102.0,13.3,1505.3,327.9,-0.7,1.8,2470.255,13.32,0.05,122.1
2020-09-18T01:34:03,42.805,6.029,0.046,-0.04,-0.008,105.0,106.0,103.0,13.4,1505.3,324.2,-0.7,1.8,2470.273,13.32,0.06,131.0
2020-09-18T01:37:03,42.805,6.029,0.056,-0.042,-0.029,105.0,107.0,103.0,13.3,1505.3,326.4,-0.8,1.8,2470.273,13.32,0.069,126.9
2020-09-18T01:40:03,42.805,6.029,0.034,-0.03,-0.012,104.0,105.0,102.0,13.4,1505.3,327.3,-0.7,1.8,2470.261,13.32,0.045,131.4
2020-09-18T01:43:03,42.805,6.029,0.055,-0.036,0.021,106.0,106.0,103.0,13.4,1505.3,328.5,-0.7,1.8,2470.268,13.32,0.065,123.2
2020-09-18T01:46:03,42.805,6.029,0.048,-0.02,-0.017,106.0,105.0,102.0,13.4,1505.3,324.9,-0.7,1.8,2470.284,13.32,0.052,112.6
2020-09-18T01:49:03,42.805,6.029,0.051,-0.025,0.014,104.0,105.0,103.0,13.3,1505.3,326.1,-0.7,1.9,2470.267,13.32,0.056,116.1
2020-09-18T01:52:03,42.805,6.029,0.067,-0.035,-0.013,106.0,105.0,103.0,13.4,1505.3,328.5,-0.7,1.8,2470.285,13.32,0.075,117.6
2020-09-18T01:55:03,42.805,6.029,0.055,-0.026,0.029,106.0,106.0,103.0,13.3,1505.3,326.5,-0.7,1.8,2470.268,13.32,0.06,115.3
2020-09-18T01:58:03,42.805,6.029,0.04,-0.032,-0.018,104.0,106.0,102.0,13.3,1505.3,324.2,-0.7,1.8,2470.229,13.32,0.051,128.7
2020-09-18T02:04:03,42.805,6.029,0.049,-0.051,-0.01,104.0,105.0,103.0,13.4,1505.2,323.8,-0.7,1.8,2470.301,13.3,0.07,136.1
2020-09-18T02:07:03,42.805,6.029,0.065,-0.023,-0.015,105.0,107.0,102.0,13.4,1505.3,326.3,-0.7,1.8,2470.312,13.31,0.068,109.5
2020-09-18T02:10:03,42.805,6.029,0.06,-0.028,0.016,105.0,106.0,103.0,13.4,1505.3,324.3,-0.7,1.8,2470.287,13.31,0.066,115.0
2020-09-18T02:13:03,42.805,6.029,0.046,-0.048,0.002,105.0,107.0,102.0,13.4,1505.3,328.1,-0.7,1.8,2470.263,13.32,0.066,136.2
2020-09-18T02:16:03,42.805,6.029,0.044,-0.014,-0.008,104.0,107.0,103.0,13.4,1505.3,323.3,-0.7,1.8,2470.304,13.32,0.046,107.6
2020-09-18T02:19:03,42.805,6.029,0.039,-0.036,-0.003,105.0,106.0,103.0,13.4,1505.3,325.1,-0.7,1.8,2470.278,13.32,0.053,132.7
2020-09-18T02:22:03,42.805,6.029,0.08,-0.061,-0.009,103.0,106.0,102.0,13.4,1505.3,326.5,-0.7,1.8,2470.283,13.32,0.1,127.3
2020-09-18T02:25:03,42.805,6.029,0.051,-0.015,-0.005,105.0,106.0,102.0,13.3,1505.3,324.7,-0.7,1.9,2470.292,13.32,0.053,106.4
2020-09-18T02:28:03,42.805,6.029,0.051,-0.029,-0.008,105.0,106.0,103.0,13.3,1505.3,326.2,-0.7,1.8,2470.326,13.32,0.058,119.6
2020-09-18T02:31:03,42.805,6.029,0.05,-0.033,0.0,105.0,108.0,102.0,13.3,1505.3,322.8,-0.7,1.8,2470.315,13.32,0.059,123.4
2020-09-18T02:34:04,42.805,6.029,0.03,-0.029,0.0,105.0,106.0,102.0,13.3,1505.3,327.8,-0.7,1.8,2470.287,13.32,0.041,134.0
2020-09-18T02:37:04,42.805,6.029,0.048,-0.043,-0.012,105.0,106.0,102.0,13.4,1505.3,324.4,-0.7,1.8,2470.249,13.32,0.064,131.9
2020-09-18T02:40:03,42.805,6.029,0.047,-0.032,-0.001,105.0,106.0,103.0,13.4,1505.3,325.0,-0.7,1.9,2470.29,13.32,0.056,124.2
2020-09-18T02:43:03,42.805,6.029,0.058,-0.037,-0.006,105.0,105.0,103.0,13.3,1505.3,328.0,-0.7,1.8,2470.26,13.32,0.068,122.5
2020-09-18T02:46:03,42.805,6.029,0.048,-0.043,-0.004,105.0,105.0,101.0,13.4,1505.3,326.7,-0.7,1.8,2470.256,13.32,0.064,131.9
2020-09-18T02:49:03,42.805,6.029,0.038,-0.039,0.0,106.0,106.0,102.0,13.3,1505.3,328.1,-0.7,1.9,2470.268,13.32,0.054,135.7
2020-09-18T02:52:03,42.805,6.029,0.066,-0.035,0.038,104.0,106.0,102.0,13.3,1505.3,326.5,-0.7,1.8,2470.277,13.32,0.074,117.9
2020-09-18T02:55:03,42.805,6.029,0.052,-0.034,0.008,105.0,105.0,103.0,13.3,1505.3,324.5,-0.7,1.8,2470.279,13.32,0.062,123.2
2020-09-18T02:58:03,42.805,6.029,0.046,-0.011,0.017,105.0,105.0,102.0,13.4,1505.3,324.9,-0.7,1.8,2470.263,13.32,0.047,103.4
2020-09-18T03:04:03,42.805,6.029,0.028,-0.03,-0.049,106.0,106.0,102.0,13.3,1505.2,327.2,-0.8,1.8,2470.305,13.3,0.041,137.0
2020-09-18T03:07:04,42.805,6.029,0.065,-0.055,-0.01,106.0,106.0,102.0,13.4,1505.3,326.5,-0.7,1.8,2470.309,13.31,0.085,130.2
2020-09-18T03:10:03,42.805,6.029,0.04,-0.029,0.004,106.0,107.0,103.0,13.4,1505.3,322.7,-0.7,1.8,2470.29,13.31,0.049,125.9
2020-09-18T03:13:03,42.805,6.029,0.043,-0.027,-0.018,104.0,106.0,101.0,13.3,1505.3,324.7,-0.7,1.8,2470.296,13.32,0.05,122.1
2020-09-18T03:16:03,42.805,6.029,0.049,-0.049,-0.011,105.0,106.0,102.0,13.3,1505.3,323.8,-0.7,1.8,2470.32,13.32,0.069,135.0
2020-09-18T03:19:03,42.805,6.029,0.051,-0.025,-0.012,104.0,105.0,103.0,13.3,1505.3,324.5,-0.7,1.8,2470.297,13.32,0.056,116.1
2020-09-18T03:22:03,42.805,6.029,0.054,-0.022,0.027,105.0,106.0,103.0,13.4,1505.3,327.7,-0.7,1.8,2470.303,13.32,0.058,112.2
2020-09-18T03:25:03,42.805,6.029,0.04,-0.04,0.005,106.0,106.0,102.0,13.3,1505.3,323.8,-0.7,1.8,2470.288,13.32,0.056,135.0
2020-09-18T03:28:03,42.805,6.029,0.059,-0.006,0.0,105.0,106.0,102.0,13.4,1505.3,325.7,-0.7,1.8,2470.298,13.32,0.059,95.8
2020-09-18T03:31:03,42.805,6.029,0.042,-0.024,-0.02,105.0,105.0,102.0,13.4,1505.3,325.9,-0.7,1.8,2470.285,13.32,0.048,119.7
2020-09-18T03:34:03,42.805,6.029,0.047,-0.051,-0.007,105.0,106.0,102.0,13.4,1505.3,323.9,-0.7,1.8,2470.323,13.32,0.069,137.3
2020-09-18T03:37:03,42.805,6.029,0.063,-0.011,0.04,103.0,106.0,103.0,13.4,1505.3,325.7,-0.7,1.8,2470.249,13.32,0.063,99.9
2020-09-18T03:40:03,42.805,6.029,0.033,-0.032,-0.009,105.0,106.0,102.0,13.4,1505.3,324.8,-0.7,1.8,2470.283,13.32,0.045,134.1
2020-09-18T03:43:03,42.805,6.029,0.049,-0.043,0.014,105.0,105.0,102.0,13.4,1505.3,324.2,-0.7,1.8,2470.269,13.32,0.065,131.3
2020-09-18T03:46:05,42.805,6.029,0.064,-0.012,0.01,106.0,105.0,102.0,13.4,1505.3,325.4,-0.7,1.8,2470.263,13.32,0.065,100.6
2020-09-18T03:49:03,42.805,6.029,0.075,-0.027,-0.004,104.0,106.0,103.0,13.4,1505.3,324.8,-0.7,1.9,2470.307,13.32,0.079,109.8
2020-09-18T03:52:03,42.805,6.029,0.035,-0.033,-0.013,103.0,106.0,103.0,13.4,1505.3,325.0,-0.7,1.9,2470.277,13.32,0.048,133.3
2020-09-18T03:55:03,42.805,6.029,0.058,-0.031,-0.013,105.0,105.0,103.0,13.4,1505.3,326.3,-0.7,1.9,2470.323,13.32,0.065,118.1
2020-09-18T03:58:03,42.805,6.029,0.061,-0.022,0.016,105.0,105.0,102.0,13.4,1505.3,324.1,-0.7,1.8,2470.31,13.32,0.064,109.8
2020-09-18T04:04:03,42.805,6.029,0.039,-0.021,0.035,107.0,106.0,103.0,13.4,1505.2,324.0,-0.7,1.8,2470.331,13.3,0.044,118.3
2020-09-18T04:07:03,42.805,6.029,0.05,-0.005,0.006,105.0,105.0,103.0,13.4,1505.3,325.5,-0.7,1.8,2470.322,13.31,0.05,95.7
2020-09-18T04:10:03,42.805,6.029,0.057,-0.035,-0.003,105.0,106.0,102.0,13.3,1505.3,326.9,-0.7,1.9,2470.343,13.31,0.066,121.6
2020-09-18T04:13:03,42.805,6.029,0.052,-0.037,-0.013,105.0,106.0,103.0,13.3,1505.3,324.6,-0.7,1.8,2470.343,13.32,0.063,125.4
2020-09-18T04:16:04,42.805,6.029,0.06,-0.017,-0.025,104.0,105.0,103.0,13.3,1505.3,325.1,-0.7,1.9,2470.321,13.32,0.062,105.8
2020-09-18T04:19:03,42.805,6.029,0.048,-0.05,-0.006,106.0,105.0,102.0,13.4,1505.3,326.4,-0.7,1.8,2470.333,13.32,0.069,136.2
2020-09-18T04:22:03,42.805,6.029,0.046,-0.025,-0.012,104.0,105.0,103.0,13.4,1505.3,326.9,-0.7,1.8,2470.32,13.32,0.052,118.5
2020-09-18T04:25:03,42.805,6.029,0.058,-0.031,-0.023,106.0,107.0,101.0,13.3,1505.3,327.4,-0.7,1.8,2470.36,13.32,0.065,118.1
2020-09-18T04:28:03,42.805,6.029,0.046,-0.045,-0.006,105.0,104.0,102.0,13.4,1505.3,326.2,-0.7,1.8,2470.368,13.32,0.064,134.4
2020-09-18T04:31:03,42.805,6.029,0.073,-0.044,0.005,105.0,106.0,103.0,13.4,1505.3,327.5,-0.7,1.8,2470.349,13.32,0.085,121.1
2020-09-18T04:34:03,42.805,6.029,0.049,-0.03,0.0,105.0,105.0,102.0,13.4,1505.3,323.5,-0.7,1.8,2470.344,13.32,0.057,121.5
2020-09-18T04:37:03,42.805,6.029,0.057,-0.02,0.001,105.0,106.0,102.0,13.4,1505.3,326.7,-0.7,1.8,2470.355,13.32,0.06,109.3
2020-09-18T04:40:04,42.805,6.029,0.041,-0.044,-0.025,105.0,106.0,103.0,13.3,1505.3,324.5,-0.7,1.8,2470.357,13.32,0.06,137.0
2020-09-18T04:43:03,42.805,6.029,0.049,-0.035,-0.002,103.0,105.0,104.0,13.4,1505.3,325.8,-0.7,1.8,2470.341,13.32,0.06,125.5
2020-09-18T04:46:03,42.805,6.029,0.058,-0.035,-0.004,104.0,104.0,103.0,13.4,1505.3,322.8,-0.7,1.8,2470.358,13.32,0.067,121.1
2020-09-18T04:49:03,42.805,6.029,0.055,-0.024,-0.019,105.0,106.0,102.0,13.4,1505.3,326.9,-0.7,1.9,2470.329,13.32,0.06,113.6
2020-09-18T04:52:04,42.805,6.029,0.046,-0.04,-0.002,106.0,106.0,102.0,13.4,1505.3,327.3,-0.7,1.9,2470.336,13.32,0.06,131.0
2020-09-18T04:55:03,42.805,6.029,0.019,-0.036,-0.022,105.0,106.0,102.0,13.4,1505.3,323.7,-0.7,1.8,2470.336,13.32,0.04,152.2
2020-09-18T04:58:03,42.805,6.029,0.057,-0.033,0.012,104.0,106.0,103.0,13.3,1505.3,324.7,-0.7,1.8,2470.358,13.32,0.065,120.1
2020-09-18T05:04:03,42.805,6.029,0.055,-0.049,-0.01,104.0,105.0,102.0,13.4,1505.2,323.0,-0.7,1.8,2470.44,13.3,0.073,131.7
2020-09-18T05:07:03,42.805,6.029,0.059,-0.04,-0.014,105.0,105.0,102.0,13.3,1505.3,326.3,-0.7,1.9,2470.454,13.31,0.071,124.1
2020-09-18T05:10:04,42.805,6.029,0.029,-0.048,-0.01,105.0,105.0,103.0,13.4,1505.3,324.1,-0.7,1.8,2470.403,13.31,0.056,148.9
2020-09-18T05:13:03,42.805,6.029,0.033,-0.057,-0.035,106.0,106.0,102.0,13.4,1505.3,328.3,-0.7,1.8,2470.431,13.32,0.065,149.9
2020-09-18T05:16:03,42.805,6.029,0.054,-0.024,-0.02,106.0,107.0,103.0,13.4,1505.3,322.9,-0.7,1.8,2470.416,13.32,0.059,114.0
2020-09-18T05:19:03,42.805,6.029,0.061,-0.038,-0.026,106.0,105.0,103.0,13.4,1505.3,325.2,-0.7,1.8,2470.383,13.32,0.071,121.9
2020-09-18T05:22:03,42.805,6.029,0.015,-0.044,-0.029,104.0,105.0,102.0,13.4,1505.3,325.1,-0.7,1.8,2470.438,13.32,0.046,161.2
2020-09-18T05:25:03,42.805,6.029,0.035,-0.03,-0.012,105.0,107.0,101.0,13.3,1505.3,326.3,-0.7,1.8,2470.462,13.32,0.046,130.6
2020-09-18T05:28:03,42.805,6.029,0.047,-0.023,0.01,104.0,105.0,102.0,13.4,1505.3,326.5,-0.7,1.8,2470.405,13.32,0.052,116.1
2020-09-18T05:31:03,42.805,6.029,0.048,-0.037,0.0,105.0,104.0,102.0,13.3,1505.3,326.3,-0.7,1.8,2470.386,13.32,0.06,127.6
2020-09-18T05:34:03,42.805,6.029,0.064,-0.027,-0.005,105.0,106.0,102.0,13.4,1505.3,324.3,-0.7,1.8,2470.456,13.32,0.069,112.9
2020-09-18T05:37:03,42.805,6.029,0.05,-0.049,-0.022,106.0,106.0,103.0,13.4,1505.3,328.1,-0.7,1.8,2470.414,13.32,0.07,134.4
2020-09-18T05:40:03,42.805,6.029,0.03,-0.038,-0.012,105.0,105.0,102.0,13.4,1505.3,324.0,-0.7,1.8,2470.399,13.32,0.048,141.7
2020-09-18T05:43:03,42.805,6.029,0.041,-0.029,0.02,104.0,105.0,102.0,13.4,1505.3,325.4,-0.7,1.8,2470.441,13.32,0.05,125.3
2020-09-18T05:46:03,42.805,6.029,0.048,-0.011,0.032,104.0,106.0,101.0,13.3,1505.3,325.1,-0.7,1.8,2470.462,13.32,0.049,102.9
2020-09-18T05:49:03,42.805,6.029,0.045,-0.043,-0.025,105.0,105.0,103.0,13.3,1505.3,323.4,-0.7,1.9,2470.431,13.32,0.062,133.7
2020-09-18T05:52:03,42.805,6.029,0.017,-0.031,-0.01,104.0,105.0,103.0,13.4,1505.3,322.8,-0.7,1.9,2470.43,13.32,0.035,151.3
2020-09-18T05:55:03,42.805,6.029,0.039,-0.033,-0.004,104.0,105.0,102.0,13.4,1505.3,327.3,-0.7,1.8,2470.434,13.32,0.051,130.2
2020-09-18T05:58:03,42.805,6.029,0.044,-0.028,0.018,104.0,106.0,103.0,13.4,1505.3,327.0,-0.7,1.8,2470.477,13.32,0.052,122.5
2020-09-18T06:04:03,42.805,6.029,0.047,-0.034,-0.018,104.0,105.0,102.0,13.4,1505.2,323.7,-0.7,1.8,2470.504,13.3,0.058,125.9
2020-09-18T06:07:03,42.805,6.029,0.041,-0.025,-0.005,105.0,105.0,103.0,13.3,1505.3,328.3,-0.7,1.8,2470.46,13.31,0.048,121.4
2020-09-18T06:10:03,42.805,6.029,0.04,-0.037,-0.02,105.0,105.0,102.0,13.4,1505.3,327.1,-0.7,1.8,2470.484,13.31,0.054,132.8
2020-09-18T06:13:04,42.805,6.029,0.024,-0.037,-0.002,105.0,105.0,101.0,13.4,1505.3,324.1,-0.7,1.9,2470.484,13.32,0.044,147.0
2020-09-18T06:16:03,42.805,6.029,0.03,-0.032,-0.002,104.0,105.0,102.0,13.4,1505.3,326.3,-0.7,1.8,2470.452,13.32,0.043,136.9
2020-09-18T06:19:03,42.805,6.029,0.051,-0.04,-0.027,105.0,105.0,102.0,13.4,1505.3,325.6,-0.7,1.8,2470.502,13.32,0.064,128.1
2020-09-18T06:22:03,42.805,6.029,0.035,-0.029,-0.017,104.0,105.0,103.0,13.3,1505.3,323.5,-0.7,1.8,2470.517,13.32,0.045,129.6
2020-09-18T06:25:03,42.805,6.029,0.039,-0.023,0.008,105.0,105.0,102.0,13.4,1505.3,322.8,-0.7,1.8,2470.477,13.32,0.045,120.5
2020-09-18T06:28:03,42.805,6.029,0.034,-0.03,0.009,105.0,106.0,102.0,13.4,1505.3,326.7,-0.7,1.8,2470.477,13.32,0.045,131.4
2020-09-18T06:31:03,42.805,6.029,0.029,-0.049,-0.018,106.0,105.0,103.0,13.4,1505.3,326.9,-0.7,1.8,2470.47,13.32,0.056,149.4
2020-09-18T06:34:03,42.805,6.029,0.042,-0.036,0.031,105.0,106.0,102.0,13.4,1505.3,323.1,-0.7,1.8,2470.51,13.32,0.055,130.6
2020-09-18T06:37:04,42.805,6.029,0.048,-0.032,0.0,103.0,106.0,103.0,13.4,1505.3,326.1,-0.7,1.9,2470.493,13.32,0.057,123.7
2020-09-18T06:40:03,42.805,6.029,0.035,-0.054,-0.032,105.0,106.0,101.0,13.4,1505.3,324.6,-0.7,1.8,2470.485,13.32,0.064,147.0
2020-09-18T06:43:03,42.805,6.029,0.026,-0.056,-0.021,105.0,105.0,103.0,13.4,1505.3,326.2,-0.7,1.9,2470.501,13.32,0.061,155.1
2020-09-18T06:46:03,42.805,6.029,0.039,-0.05,-0.025,105.0,105.0,102.0,13.4,1505.3,327.1,-0.7,1.8,2470.484,13.32,0.063,142.0
2020-09-18T06:49:03,42.805,6.029,0.044,-0.035,0.004,104.0,105.0,102.0,13.4,1505.3,325.8,-0.7,1.8,2470.478,13.32,0.056,128.5
2020-09-18T06:52:03,42.805,6.029,0.053,-0.036,0.0,104.0,105.0,103.0,13.4,1505.3,327.1,-0.7,1.8,2470.465,13.32,0.064,124.2
2020-09-18T06:55:03,42.805,6.029,0.03,-0.024,-0.011,104.0,106.0,102.0,13.4,1505.3,323.9,-0.7,1.9,2470.52,13.32,0.038,128.7
2020-09-18T06:58:03,42.805,6.029,0.0,-0.029,0.01,106.0,105.0,102.0,13.4,1505.3,323.0,-0.7,1.8,2470.482,13.32,0.028,180.0
2020-09-18T07:04:03,42.805,6.029,0.038,-0.038,-0.004,104.0,105.0,101.0,13.4,1505.2,327.9,-0.8,1.8,2470.547,13.3,0.053,135.0
2020-09-18T07:07:03,42.805,6.029,0.029,-0.022,0.02,105.0,105.0,102.0,13.4,1505.3,326.8,-0.7,1.8,2470.545,13.31,0.036,127.2
2020-09-18T07:10:03,42.805,6.029,0.041,-0.048,-0.004,104.0,105.0,101.0,13.4,1505.3,324.4,-0.7,1.8,2470.489,13.31,0.063,139.5
2020-09-18T07:13:03,42.805,6.029,0.039,-0.04,-0.022,105.0,106.0,102.0,13.4,1505.3,325.1,-0.7,1.8,2470.501,13.32,0.055,135.7
2020-09-18T07:16:03,42.805,6.029,0.047,-0.033,0.001,105.0,105.0,102.0,13.3,1505.3,324.4,-0.7,1.8,2470.53,13.32,0.057,125.1
2020-09-18T07:19:03,42.805,6.029,0.048,-0.031,0.021,104.0,105.0,101.0,13.3,1505.3,325.4,-0.7,1.8,2470.501,13.32,0.057,122.9
2020-09-18T07:22:03,42.805,6.029,0.045,-0.027,0.011,104.0,105.0,103.0,13.3,1505.3,325.1,-0.7,1.8,2470.524,13.32,0.052,121.0
2020-09-18T07:25:03,42.805,6.029,0.045,-0.031,0.001,103.0,107.0,102.0,13.4,1505.3,325.7,-0.7,1.8,2470.492,13.32,0.054,124.6
2020-09-18T07:28:03,42.805,6.029,0.029,-0.027,-0.013,105.0,106.0,101.0,13.3,1505.3,326.1,-0.7,1.8,2470.535,13.32,0.039,133.0
2020-09-18T07:31:03,42.805,6.029,0.046,-0.041,0.024,104.0,105.0,103.0,13.4,1505.3,327.3,-0.7,1.8,2470.434,13.32,0.061,131.7
2020-09-18T07:34:03,42.805,6.029,0.029,-0.022,-0.012,104.0,105.0,103.0,13.4,1505.3,325.7,-0.7,1.8,2470.511,13.32,0.036,127.2
2020-09-18T07:37:03,42.805,6.029,0.029,-0.047,-0.022,105.0,105.0,101.0,13.4,1505.3,324.1,-0.7,1.8,2470.5,13.32,0.055,148.3
2020-09-18T07:40:03,42.805,6.029,0.036,-0.049,-0.018,105.0,106.0,102.0,13.3,1505.3,326.0,-0.7,1.8,2470.501,13.32,0.06,143.7
2020-09-18T07:43:03,42.805,6.029,0.008,-0.041,0.011,105.0,105.0,101.0,13.4,1505.3,327.8,-0.7,1.8,2470.467,13.32,0.041,169.0
2020-09-18T07:46:04,42.805,6.029,0.025,-0.043,-0.004,104.0,104.0,101.0,13.4,1505.3,323.7,-0.7,1.8,2470.495,13.32,0.049,149.8
2020-09-18T07:49:03,42.805,6.029,0.039,-0.028,0.011,103.0,105.0,102.0,13.4,1505.3,327.8,-0.7,1.8,2470.528,13.32,0.048,125.7
2020-09-18T07:52:03,42.805,6.029,0.039,-0.029,0.014,104.0,104.0,102.0,13.4,1505.3,324.6,-0.7,1.8,2470.498,13.32,0.048,126.6
2020-09-18T07:55:04,42.805,6.029,0.045,-0.032,0.012,103.0,106.0,102.0,13.4,1505.3,323.5,-0.7,1.8,2470.508,13.32,0.055,125.4
2020-09-18T07:58:03,42.805,6.029,0.008,-0.026,-0.058,104.0,106.0,101.0,13.4,1505.3,326.3,-0.7,1.8,2470.496,13.32,0.027,162.9
2020-09-18T08:04:03,42.805,6.029,0.019,-0.033,0.005,105.0,106.0,101.0,13.4,1505.2,326.6,-0.7,1.8,2470.559,13.3,0.038,150.1
2020-09-18T08:07:03,42.805,6.029,0.016,-0.056,-0.038,103.0,105.0,101.0,13.4,1505.3,325.4,-0.7,1.8,2470.508,13.31,0.058,164.1
2020-09-18T08:13:03,42.805,6.029,0.026,-0.05,-0.027,103.0,105.0,101.0,13.4,1505.2,326.4,-0.7,1.8,2470.54,13.3,0.056,152.5
2020-09-18T08:16:03,42.805,6.029,0.054,-0.04,0.0,104.0,106.0,101.0,13.3,1505.3,324.6,-0.7,1.8,2470.546,13.31,0.067,126.5
2020-09-18T08:19:03,42.805,6.029,0.043,-0.016,-0.004,105.0,105.0,102.0,13.3,1505.3,326.0,-0.7,1.8,2470.551,13.31,0.045,110.4
2020-09-18T08:22:03,42.805,6.029,0.018,-0.006,-0.008,104.0,104.0,102.0,13.4,1505.3,327.4,-0.7,1.8,2470.504,13.32,0.018,108.4
2020-09-18T08:25:03,42.805,6.029,0.048,-0.045,-0.005,104.0,105.0,101.0,13.3,1505.3,326.2,-0.7,1.8,2470.54,13.32,0.065,133.1
2020-09-18T08:28:04,42.805,6.029,0.029,-0.039,-0.008,103.0,105.0,101.0,13.3,1505.3,327.5,-0.7,1.8,2470.528,13.32,0.048,143.4
2020-09-18T08:31:03,42.805,6.029,0.036,-0.031,0.002,103.0,105.0,102.0,13.3,1505.3,326.1,-0.7,1.9,2470.542,13.32,0.047,130.7
2020-09-18T08:34:03,42.805,6.029,0.033,-0.044,-0.01,104.0,105.0,101.0,13.3,1505.3,326.3,-0.7,1.8,2470.514,13.32,0.055,143.1
2020-09-18T08:37:03,42.805,6.029,0.016,-0.03,-0.019,104.0,104.0,102.0,13.4,1505.3,323.6,-0.7,1.8,2470.499,13.32,0.034,151.9
2020-09-18T08:40:03,42.805,6.029,0.027,-0.045,-0.009,105.0,106.0,102.0,13.3,1505.3,328.7,-0.7,1.8,2470.484,13.32,0.052,149.0
2020-09-18T08:43:03,42.805,6.029,0.027,-0.031,-0.021,103.0,104.0,101.0,13.4,1505.3,326.3,-0.7,1.8,2470.461,13.32,0.041,138.9
2020-09-18T08:46:04,42.805,6.029,0.026,-0.049,-0.004,104.0,103.0,102.0,13.4,1505.3,326.9,-0.7,1.9,2470.489,13.32,0.055,152.1
2020-09-18T08:49:03,42.805,6.029,0.02,-0.023,-0.017,103.0,105.0,102.0,13.4,1505.3,326.6,-0.7,1.8,2470.482,13.32,0.03,139.0
2020-09-18T08:52:03,42.805,6.029,0.023,-0.04,-0.048,105.0,103.0,102.0,13.3,1505.3,325.5,-0.7,1.8,2470.506,13.32,0.046,150.1
2020-09-18T08:55:03,42.805,6.029,0.015,-0.058,-0.002,103.0,105.0,102.0,13.3,1505.3,327.8,-0.7,1.8,2470.464,13.32,0.059,165.5
2020-09-18T08:58:03,42.805,6.029,0.016,-0.055,-0.006,104.0,105.0,102.0,13.4,1505.3,326.3,-0.7,1.8,2470.502,13.32,0.057,163.8
2020-09-18T09:04:04,42.805,6.029,0.038,-0.03,-0.001,104.0,105.0,102.0,13.4,1505.2,324.0,-0.8,1.8,2470.482,13.3,0.048,128.3
2020-09-18T09:07:03,42.805,6.029,0.043,-0.024,0.024,105.0,105.0,102.0,13.3,1505.3,322.8,-0.7,1.8,2470.463,13.31,0.049,119.2
2020-09-18T09:10:03,42.805,6.029,0.035,-0.035,-0.015,104.0,106.0,102.0,13.4,1505.3,325.7,-0.7,1.8,2470.467,13.32,0.049,135.0
2020-09-18T09:13:03,42.805,6.029,0.042,-0.031,0.008,102.0,106.0,103.0,13.4,1505.3,325.4,-0.7,1.8,2470.526,13.32,0.052,126.4
2020-09-18T09:16:03,42.805,6.029,0.022,-0.028,-0.023,104.0,104.0,102.0,13.4,1505.3,326.7,-0.7,1.8,2470.465,13.32,0.035,141.8
2020-09-18T09:19:03,42.805,6.029,0.02,-0.044,-0.014,104.0,105.0,102.0,13.4,1505.3,326.8,-0.7,1.8,2470.51,13.32,0.048,155.6
2020-09-18T09:22:04,42.805,6.029,0.022,-0.037,-0.034,104.0,104.0,102.0,13.4,1505.3,327.9,-0.7,1.9,2470.475,13.32,0.043,149.3
2020-09-18T09:25:03,42.805,6.029,0.041,-0.032,0.004,103.0,106.0,102.0,13.4,1505.3,325.7,-0.7,1.8,2470.421,13.32,0.052,128.0
2020-09-18T09:28:03,42.805,6.029,0.037,-0.039,-0.011,103.0,105.0,102.0,13.3,1505.3,326.4,-0.7,1.8,2470.494,13.32,0.053,136.5
2020-09-18T09:31:03,42.805,6.029,0.036,-0.042,-0.033,104.0,103.0,102.0,13.4,1505.3,326.1,-0.7,1.8,2470.455,13.32,0.055,139.4
2020-09-18T09:34:03,42.805,6.029,0.021,-0.047,-0.011,105.0,104.0,102.0,13.4,1505.3,327.4,-0.7,1.8,2470.474,13.32,0.051,155.9
2020-09-18T09:37:03,42.805,6.029,0.021,-0.031,0.011,103.0,105.0,102.0,13.4,1505.3,326.2,-0.7,1.8,2470.436,13.32,0.037,145.9
2020-09-18T09:40:03,42.805,6.029,0.015,-0.025,0.0,104.0,105.0,103.0,13.4,1505.3,326.7,-0.7,1.9,2470.451,13.32,0.029,149.0
2020-09-18T09:43:04,42.805,6.029,0.051,-0.025,0.0,103.0,106.0,102.0,13.4,1505.3,324.0,-0.7,1.8,2470.46,13.32,0.056,116.1
2020-09-18T09:46:03,42.805,6.029,0.007,-0.038,-0.01,103.0,104.0,102.0,13.3,1505.3,326.8,-0.7,1.8,2470.473,13.32,0.038,169.6
2020-09-18T09:49:03,42.805,6.029,0.011,-0.048,-0.02,105.0,105.0,102.0,13.4,1505.3,325.4,-0.7,1.8,2470.441,13.32,0.049,167.1
2020-09-18T09:52:03,42.805,6.029,0.024,-0.004,-0.007,104.0,104.0,102.0,13.4,1505.3,327.4,-0.7,1.8,2470.397,13.32,0.024,99.5
2020-09-18T09:55:03,42.805,6.029,0.0,-0.014,-0.015,103.0,106.0,100.0,13.4,1505.3,324.0,-0.7,1.8,2470.495,13.32,0.014,180.0
2020-09-18T09:58:04,42.805,6.029,0.008,-0.053,-0.027,104.0,104.0,101.0,13.3,1505.3,326.5,-0.7,1.8,2470.447,13.32,0.053,171.4